Location: Unspecified
(58.7730°N, 5.8460°E)
Time: 13:27:21
(UTC+02:00)

Cosmos 2058 - Visible Passes

Search period start: 16 September 2014 00:00
Search period end: 26 September 2014 00:00
Orbit: 569 x 595 km, 82.5° (Epoch: 15 September)

Date Brightness Start Highest point End Pass type
(mag) Time Alt. Az. Time Alt. Az. Time Alt. Az.
16 Sep 3.8 20:50:44 10° N 20:54:29 31° ENE 20:58:07 11° SE visible
16 Sep 4.0 22:27:47 10° NNW 22:31:44 43° W 22:34:31 18° SSW visible
17 Sep 3.5 20:56:24 10° N 21:00:20 39° ENE 21:04:05 11° SE visible
17 Sep 4.4 22:33:39 10° NNW 22:37:25 34° W 22:40:28 14° SSW visible
18 Sep 3.2 21:02:05 10° N 21:06:10 50° ENE 21:10:04 11° SSE visible
18 Sep 4.9 22:39:34 10° NNW 22:43:04 27° W 22:46:28 11° SW visible
19 Sep 2.9 21:07:48 10° N 21:11:57 65° ENE 21:16:06 10° SSE visible
19 Sep 5.3 22:45:32 10° NW 22:48:41 21° W 22:51:50 10° SW visible
20 Sep 2.9 21:13:32 10° NNW 21:17:44 83° ENE 21:21:55 10° SSE visible
20 Sep 5.6 22:51:36 10° NW 22:54:17 17° W 22:56:58 10° WSW visible
21 Sep 3.1 21:19:17 10° NNW 21:23:28 77° W 21:27:39 10° S visible
21 Sep 5.8 22:57:51 10° NW 22:59:51 13° W 23:01:52 10° WSW visible
22 Sep 3.5 21:25:04 10° NNW 21:29:11 59° W 21:33:18 10° S visible
22 Sep 6.1 23:04:41 10° WNW 23:05:24 10° WNW 23:06:07 10° W visible
23 Sep 4.0 21:30:52 10° NNW 21:34:52 45° W 21:38:52 10° SSW visible
24 Sep 4.5 21:36:42 10° NNW 21:40:32 35° W 21:44:21 10° SSW visible
25 Sep 3.2 20:05:09 10° N 20:09:14 48° ENE 20:13:18 10° SE visible
25 Sep 5.0 21:42:35 10° NNW 21:46:10 28° W 21:49:45 10° SSW visible
